Location: Brookfield Center
(41.2406°N, 80.5579°W)
Time: 13:11:35
(UTC+00:00)

Okean O Rocket - Pass Details

Date: 18 January 2020
Orbit: 623 x 645 km, 98.2° (Epoch: 16 February)

Event Time Altitude Azimuth Distance (km) Brightness Sun altitude
Rises 10:19:33 0° 24° (NNE) 2,963 5.3 -26.9°
Reaches altitude 10° 10:22:02 10° 36° (NE) 2,047 4.6 -26.4°
Maximum altitude 10:25:52 28° 96° (E) 1,205 3.7 -25.7°
Drops below altitude 10° 10:29:41 10° 156° (SSE) 2,025 4.5 -25.0°
Sets 10:32:07 0° 168° (SSE) 2,925 5.3 -24.5°
